Time_in_sec,Mx,My,Mz
1314362543.22049642,0.41687068,0.76916975,-0.78993618
1314362543.26949549,0.41462168,0.76831353,-0.79099971
1314362543.31744552,0.41504624,0.76688087,-0.78868127
1314362543.36851382,0.41654596,0.76839375,-0.78860605
1314362543.41744876,0.41613349,0.76829594,-0.79091233
1314362543.46949816,0.41832140,0.76967323,-0.79079634
1314362543.52055526,0.41846988,0.76623124,-0.79103059
1314362543.56869006,0.41833758,0.77150238,-0.79483831
1314362543.62059021,0.41765147,0.76853186,-0.79069215
1314362543.66948056,0.41569859,0.76692897,-0.79374754
1314362543.70950079,0.41714925,0.76834857,-0.79676348
1314362543.76859307,0.41889134,0.76803219,-0.79290003
1314362543.81747770,0.41662508,0.76832539,-0.79410744
1314362543.86941981,0.41914782,0.76920336,-0.79531151
1314362543.92058492,0.41655266,0.76719314,-0.79544622
1314362543.96961164,0.42115229,0.76817155,-0.79626250
1314362544.02055979,0.41991118,0.76859349,-0.79862046
1314362544.06948304,0.41758090,0.76795805,-0.79646701
1314362544.10947371,0.41889822,0.76795298,-0.79733109
1314362544.16947627,0.41655058,0.76836437,-0.79760396
1314362544.21744919,0.41676852,0.77040952,-0.79827827
1314362544.26950479,0.42161953,0.76830828,-0.79757959
1314362544.32057953,0.41740763,0.76722717,-0.79942626
1314362544.36950755,0.42260176,0.77053219,-0.80371761
1314362544.42053461,0.41889405,0.76836050,-0.79961759
1314362544.46848369,0.41999149,0.76951891,-0.80171180
1314362544.51741886,0.41612986,0.76816547,-0.80232745
1314362544.56846261,0.42028046,0.76864636,-0.80383742
1314362544.61747503,0.42099622,0.76720738,-0.80123353
1314362544.66947556,0.41997704,0.76814562,-0.80438840
1314362544.72049689,0.42175061,0.76978284,-0.80429834
1314362544.77018523,0.42021111,0.76713151,-0.80517310
1314362544.82047153,0.41926536,0.77009320,-0.80686158
1314362544.86947060,0.42103168,0.76763207,-0.80512953
1314362544.92049289,0.41824827,0.76792538,-0.80582958
1314362544.96858668,0.42238876,0.76968157,-0.80734974
1314362545.01749015,0.42202011,0.76725847,-0.80694991
1314362545.06956029,0.42025471,0.76755464,-0.80893433
1314362545.12050319,0.42228690,0.76827562,-0.80694216
1314362545.16951346,0.42226344,0.77008760,-0.80937457
1314362545.22143936,0.42127699,0.76918733,-0.80767882
1314362545.26954365,0.42097336,0.76563042,-0.80860978
1314362545.32146430,0.41877452,0.76871222,-0.80835688
1314362545.36953950,0.42190200,0.76880920,-0.80871433
1314362545.41744828,0.41979674,0.76932627,-0.80722809
1314362545.46857071,0.42197526,0.76869255,-0.80978370
1314362545.52054977,0.42071706,0.76945037,-0.80784744
1314362545.56950998,0.42119446,0.76739562,-0.80699861
1314362545.62146235,0.42042291,0.77085805,-0.80800927
1314362545.66855025,0.41927841,0.76833260,-0.80913079
1314362545.70955467,0.42211390,0.76968479,-0.80736566
1314362545.76856303,0.41832352,0.76755363,-0.80689687
1314362545.81747365,0.42120376,0.76930398,-0.80660951
1314362545.86950445,0.41923574,0.76869810,-0.80752432
1314362545.91751719,0.42168733,0.76852149,-0.80550128
1314362545.96950078,0.42113751,0.77331376,-0.81174695
1314362546.01738524,0.41914919,0.76741648,-0.80684823
1314362546.06946802,0.42097262,0.76789802,-0.80607504
1314362546.10951138,0.41925907,0.76871830,-0.80940342
1314362546.16954303,0.42164958,0.76906282,-0.80832791
1314362546.21747828,0.42165884,0.77097118,-0.80793875
1314362546.26937842,0.42101526,0.76753259,-0.80768150
1314362546.31751895,0.42190409,0.76957291,-0.80858564
1314362546.37349319,0.42102435,0.76831961,-0.80970144
1314362546.41746569,0.42173088,0.76986074,-0.81141818
1314362546.47250843,0.42003682,0.77039790,-0.81219155
1314362546.52047873,0.41977924,0.76833558,-0.80990773
1314362546.56944656,0.42064762,0.76885170,-0.81133884
1314362546.61745548,0.41979644,0.76810229,-0.81191957
1314362546.66950417,0.42113519,0.76847517,-0.81238234
1314362546.71873498,0.42309827,0.76982135,-0.80919009
1314362546.76820707,0.41976079,0.77042603,-0.81449085
1314362546.81900382,0.42287111,0.76882142,-0.81080735
1314362546.86938238,0.42169634,0.76920593,-0.80980361
1314362546.91876006,0.41731647,0.76889628,-0.81206864
1314362546.97253871,0.42017001,0.76978511,-0.81459671
1314362547.01747179,0.42246282,0.76831603,-0.81082714
1314362547.06850719,0.41806576,0.77017456,-0.81310946
1314362547.11871290,0.41885471,0.76953506,-0.81373066
1314362547.16154122,0.42278352,0.76960224,-0.81216133
1314362547.21802878,0.42168203,0.77282369,-0.81412935
1314362547.26948738,0.42043680,0.76886731,-0.81255984
1314362547.30951095,0.41965407,0.77077907,-0.81167924
1314362547.36958313,0.42013142,0.76964045,-0.81298620
1314362547.41747642,0.42117292,0.77078480,-0.81374055
1314362547.46853209,0.42039213,0.77142274,-0.81298453
1314362547.52051401,0.42049691,0.76847380,-0.81161332
1314362547.56947947,0.42286283,0.77065521,-0.81525367
1314362547.62450743,0.42035332,0.77015674,-0.81378311
1314362547.66947603,0.41941154,0.76863593,-0.81369174
1314362547.71733308,0.42151794,0.77002883,-0.81492370
1314362547.76953173,0.42127654,0.76979566,-0.81668180
1314362547.81744623,0.42104849,0.76902586,-0.81601769
1314362547.86931348,0.41958040,0.76956916,-0.81758386
1314362547.92057347,0.42032477,0.76965284,-0.81431818
1314362547.96929836,0.42430636,0.77001399,-0.81637430
1314362548.01732850,0.41927195,0.77072483,-0.81801325
1314362548.06949902,0.42009059,0.77056438,-0.81581593
1314362548.11738682,0.42112181,0.76992792,-0.81696033
1314362548.16956758,0.42114833,0.76875204,-0.81439823
1314362548.21744728,0.42228559,0.77104890,-0.81569284
1314362548.26949930,0.42160559,0.77026677,-0.81344306
1314362548.31749058,0.41952661,0.76940268,-0.81395948
1314362548.37143803,0.42247698,0.77233511,-0.81690019
1314362548.42059493,0.42318755,0.76949638,-0.81455469
1314362548.46947408,0.41930658,0.76852870,-0.81544298
1314362548.51730275,0.41953883,0.76889098,-0.81382060
1314362548.56953597,0.42058435,0.76952523,-0.81457084
1314362548.61747575,0.42169815,0.76976436,-0.81423974
1314362548.66954732,0.41853485,0.76893491,-0.81683362
1314362548.71753168,0.42041942,0.76991409,-0.81498623
1314362548.76927042,0.42261025,0.76887131,-0.81512058
1314362548.82048702,0.42252475,0.77041584,-0.81634581
1314362548.86948419,0.41908157,0.76931113,-0.81680489
1314362548.90948129,0.42209008,0.76925409,-0.81461620
1314362548.96853971,0.42224887,0.76861167,-0.81433362
1314362549.01744795,0.42020160,0.76990640,-0.81405860
1314362549.06941676,0.42010891,0.77030617,-0.81554431
1314362549.12060404,0.42117375,0.76760107,-0.81411952
1314362549.16953778,0.42156368,0.77223432,-0.81842953
1314362549.22059059,0.42372406,0.77104533,-0.81681854
1314362549.26949143,0.42169493,0.76902562,-0.81665188
1314362549.30882740,0.42082444,0.76866198,-0.81750524
1314362549.36859274,0.42469093,0.76825637,-0.81929362
1314362549.41745663,0.42294708,0.76903307,-0.81859422
1314362549.46156883,0.42278302,0.77112669,-0.82332009
1314362549.51735759,0.41894889,0.76745105,-0.82149923
1314362549.56553125,0.42348433,0.76637954,-0.82136369
1314362549.62146902,0.41979197,0.77115560,-0.82295573
1314362549.66949558,0.42279422,0.76880765,-0.82115316
1314362549.70949531,0.42316386,0.77110320,-0.82155198
1314362549.76848269,0.42306399,0.76648849,-0.81923991
1314362549.81747699,0.42090791,0.76930743,-0.81831110
1314362549.86945558,0.42056251,0.76782072,-0.82194608
1314362549.91724253,0.42291951,0.76840162,-0.81912833
1314362549.96947503,0.42142290,0.77139461,-0.82313198
1314362550.02046728,0.42026329,0.76793122,-0.82008392
1314362550.06945419,0.42239416,0.76738459,-0.81888241
1314362550.10945749,0.42089242,0.76806170,-0.82098871
1314362550.16937375,0.42342460,0.76901579,-0.81749213
1314362550.21744871,0.42219478,0.76915616,-0.81742984
1314362550.26882720,0.41780075,0.76869720,-0.81768000
1314362550.32058692,0.42108306,0.76774579,-0.81560314
1314362550.36947608,0.41777334,0.76816833,-0.81593168
1314362550.41754031,0.42059460,0.77028733,-0.81430739
1314362550.46949720,0.42034101,0.76863098,-0.81417531
1314362550.51721478,0.42018759,0.76985961,-0.80976129
1314362550.56935215,0.41875815,0.76963151,-0.81078225
1314362550.61756921,0.42134506,0.76960576,-0.81103563
1314362550.66950917,0.41799861,0.76759112,-0.81000495
1314362550.71751261,0.42124540,0.76906604,-0.80821693
1314362550.76947427,0.41863707,0.77064872,-0.81039393
1314362550.82151508,0.41680461,0.76846397,-0.80699140
1314362550.86849380,0.41623753,0.76666617,-0.80526465
1314362550.91719365,0.41813731,0.76766723,-0.80543113
1314362550.96934795,0.41763848,0.76934403,-0.80668128
1314362551.01750040,0.41848657,0.76752245,-0.80420113
1314362551.06934166,0.41644317,0.76718563,-0.80633110
1314362551.12151599,0.41810483,0.76777607,-0.80368787
1314362551.17352486,0.41882765,0.76737922,-0.80310595
1314362551.21731019,0.41756839,0.77111554,-0.80535555
1314362551.26999402,0.41439080,0.76616442,-0.80415875
1314362551.31750321,0.41729441,0.76701885,-0.80359465
1314362551.37223029,0.41236389,0.76694578,-0.80361009
1314362551.41768837,0.41700017,0.76740783,-0.80388314
1314362551.46920514,0.41741553,0.76702040,-0.80385625
1314362551.52352047,0.41386354,0.76743990,-0.80366153
1314362551.56948018,0.41403463,0.77025813,-0.80501586
1314362551.61823869,0.41637126,0.76839870,-0.80056930
1314362551.66949010,0.41539577,0.76599294,-0.80114472
1314362551.71749640,0.41523096,0.76841927,-0.80130678
1314362551.76859307,0.41436961,0.76792651,-0.80202430
1314362551.81746531,0.41394010,0.76816458,-0.80003631
1314362551.86860466,0.41225711,0.76628011,-0.80092514
1314362551.91730309,0.41643742,0.76723993,-0.79961663
1314362551.97044897,0.41455609,0.76995307,-0.80095434
1314362552.02120256,0.41549370,0.76994652,-0.80130309
1314362552.06948519,0.41432995,0.76689070,-0.80054146
1314362552.10947132,0.41265735,0.76688963,-0.79875773
1314362552.16952610,0.41263074,0.76704675,-0.80144656
1314362552.22145081,0.41511714,0.76966506,-0.79850233
1314362552.26951528,0.41386986,0.76687992,-0.79909062
1314362552.31728911,0.41524628,0.76660883,-0.79900914
1314362552.37173223,0.41477486,0.76881450,-0.80200762
1314362552.42125177,0.41382617,0.76737291,-0.79748517
1314362552.46951818,0.41236207,0.76638734,-0.79917395
1314362552.50946856,0.41279376,0.76701558,-0.79875082
1314362552.56857538,0.41736087,0.76901895,-0.79997963
1314362552.62144852,0.41344753,0.76826268,-0.79684216
1314362552.66851759,0.41201708,0.76816207,-0.79786414
1314362552.71727586,0.41609243,0.76901466,-0.79830682
1314362552.76948476,0.41262683,0.76765954,-0.79916817
1314362552.82052517,0.41609043,0.76926970,-0.79830885
1314362552.86948824,0.41174936,0.76635641,-0.79571712
1314362552.92048049,0.41520777,0.76850164,-0.79714531
1314362552.96951365,0.41418868,0.76760763,-0.79598868
1314362553.02114701,0.41336089,0.76789725,-0.79832178
1314362553.06914592,0.41481897,0.76771319,-0.79461002
1314362553.12060380,0.41376120,0.76759064,-0.79399866
1314362553.16948152,0.41468459,0.77028573,-0.79651737
1314362553.21752357,0.41433030,0.76913333,-0.79572332
1314362553.26948667,0.41203251,0.76645422,-0.79328406
1314362553.30948639,0.41561416,0.76742983,-0.79281604
1314362553.36849236,0.41460127,0.77167779,-0.79545820
1314362553.42152619,0.41578329,0.76958698,-0.79201663
1314362553.46851683,0.41519058,0.76873493,-0.79513347
1314362553.52151513,0.41487494,0.76681107,-0.79379421
1314362553.56947541,0.41219857,0.76797527,-0.79261434
1314362553.62050653,0.41479772,0.77039146,-0.79463136
1314362553.66853046,0.41523242,0.76768345,-0.79230279
1314362553.70908618,0.41316268,0.76770902,-0.79255670
1314362553.76852298,0.41329607,0.76628268,-0.79052377
1314362553.82152843,0.41453212,0.76843327,-0.79019994
1314362553.86861849,0.41331938,0.76630294,-0.79240280
1314362553.92054057,0.41547170,0.76715297,-0.79067332
1314362553.96948075,0.41258743,0.76978248,-0.79502296
1314362554.02060485,0.41502273,0.76767415,-0.79124033
1314362554.06854010,0.41274834,0.76603401,-0.79055351
1314362554.12117076,0.41398743,0.76780200,-0.79022664
1314362554.16923094,0.41110012,0.76887923,-0.79255027
1314362554.22147083,0.41368905,0.76666361,-0.79077256
1314362554.26960897,0.41229931,0.76553649,-0.79124719
1314362554.32122397,0.41523349,0.76663977,-0.79014599
1314362554.36994529,0.41304260,0.76666379,-0.79013830
1314362554.42155361,0.41288790,0.76781482,-0.79029018
1314362554.46949959,0.41132522,0.76911557,-0.79106170
1314362554.52049470,0.41580057,0.76650274,-0.78984362
1314362554.56910229,0.41322693,0.76690793,-0.78932369
1314362554.62144828,0.41298559,0.76769346,-0.79095519
1314362554.66947937,0.41028851,0.76519340,-0.79283804
1314362554.72108102,0.41311300,0.76805109,-0.78880161
1314362554.76949120,0.41234916,0.76825052,-0.79462230
1314362554.82049870,0.41219971,0.76601547,-0.78830183
1314362554.86946964,0.41267204,0.76653326,-0.78948718
1314362554.92150950,0.41399446,0.76589054,-0.79034621
1314362554.96848750,0.41107473,0.76809537,-0.79079986
1314362555.02144861,0.41455248,0.76598513,-0.78789723
1314362555.06846404,0.41296628,0.76614434,-0.78919870
1314362555.12052536,0.41245627,0.76627046,-0.78855753
1314362555.17348862,0.41112453,0.76592100,-0.79024345
1314362555.22108531,0.41451886,0.76805377,-0.79046649
1314362555.26946163,0.41261083,0.76501685,-0.79068810
1314362555.32049632,0.41159070,0.76516652,-0.79168820
1314362555.36851788,0.41011658,0.76555896,-0.79110473
1314362555.42147326,0.41311061,0.76606351,-0.79362178
1314362555.46849680,0.41116515,0.76581055,-0.79185194
1314362555.52059460,0.41190419,0.76530802,-0.79328287
1314362555.57079124,0.41303939,0.76785994,-0.79457951
1314362555.62052202,0.41351074,0.76463556,-0.79170775
1314362555.66946983,0.41140643,0.76594114,-0.79237622
1314362555.72054100,0.41108567,0.76557112,-0.79319775
1314362555.76860619,0.41256684,0.76622081,-0.79580325
1314362555.82144642,0.41289487,0.76681942,-0.79256552
1314362555.86861920,0.41070881,0.76406568,-0.79508847
1314362555.92067742,0.41022432,0.76701325,-0.79594439
1314362555.97214103,0.41194063,0.76560515,-0.79717779
1314362556.02052808,0.41231245,0.76774818,-0.79529220
1314362556.06947422,0.41075766,0.76497245,-0.79643553
1314362556.12056231,0.41459590,0.76528692,-0.79406744
1314362556.16869116,0.41016302,0.76447809,-0.79727197
1314362556.22144675,0.41259837,0.76725823,-0.79742086
1314362556.26947689,0.41119954,0.76534402,-0.79587561
1314362556.31825137,0.41078305,0.76382154,-0.79615682
1314362556.36986208,0.41271231,0.76804990,-0.79997200
1314362556.42067671,0.41298226,0.76685214,-0.79564971
1314362556.46948481,0.41122392,0.76625550,-0.79762697
1314362556.50948429,0.41012543,0.76420587,-0.79566044
1314362556.56948423,0.41299546,0.76814777,-0.79753894
1314362556.62165308,0.41333252,0.76657981,-0.79441869
1314362556.66862726,0.40942001,0.76650953,-0.79571843
1314362556.72077513,0.41341177,0.76661408,-0.79763770
1314362556.76974797,0.41059563,0.76487613,-0.79913026
1314362556.81828833,0.41235706,0.76804376,-0.79905236
1314362556.86962438,0.41001230,0.76603508,-0.79957551
1314362556.91309929,0.41373354,0.76685655,-0.79681510
1314362556.96952224,0.41237634,0.76663929,-0.79890639
1314362557.02147579,0.41179821,0.76726317,-0.79706419
1314362557.06950665,0.40838143,0.76487994,-0.79724348
1314362557.12067318,0.41264218,0.76493293,-0.79471481
1314362557.16947222,0.41141129,0.76998669,-0.80086750
1314362557.22154713,0.41411832,0.76622033,-0.79732537
1314362557.26948786,0.41048688,0.76548427,-0.79632068
1314362557.32049870,0.41154152,0.76497066,-0.79706180
1314362557.36960793,0.41120151,0.76600510,-0.79802930
1314362557.42152286,0.41279787,0.76558930,-0.79659098
1314362557.46850324,0.41136757,0.76752615,-0.79735959
1314362557.52052879,0.41061002,0.76716560,-0.79860938
1314362557.56973648,0.41078103,0.76601148,-0.79818791
1314362557.62075925,0.41382509,0.76841658,-0.79964197
1314362557.66948056,0.41128194,0.76509827,-0.79680914
1314362557.70946479,0.41287535,0.76801866,-0.79727626
1314362557.76859760,0.41347098,0.76645070,-0.79440975
1314362557.82147264,0.41162428,0.76890248,-0.79520625
1314362557.86855721,0.41354832,0.76684260,-0.79534835
1314362557.92459106,0.41403711,0.76745987,-0.79398173
1314362557.96946764,0.40946880,0.76833242,-0.79922122
1314362558.02080894,0.41363192,0.76759064,-0.79387182
1314362558.06946540,0.41040656,0.76455879,-0.79322934
1314362558.12072301,0.41040161,0.76723397,-0.79298109
1314362558.16963100,0.41246209,0.76723492,-0.79514539
1314362558.22144270,0.41223308,0.76761132,-0.79435557
1314362558.26850581,0.41156712,0.76494110,-0.79437399
1314362558.32048750,0.41435286,0.76755148,-0.79100949
1314362558.37062049,0.41077521,0.76504701,-0.79160011
1314362558.42152786,0.41433656,0.76755464,-0.79127908
1314362558.46861815,0.41293353,0.76798284,-0.79404932
1314362558.52049422,0.41281760,0.76744622,-0.79150021
1314362558.56896663,0.41057786,0.76656353,-0.79014552
1314362558.62145329,0.41156635,0.76720870,-0.79183924
1314362558.66960049,0.41031411,0.76516378,-0.79015023
1314362558.72167206,0.41247350,0.76705593,-0.79044271
1314362558.76951575,0.41367671,0.76900756,-0.79522288
1314362558.82162762,0.41318303,0.76526088,-0.79025400
1314362558.86950684,0.41188508,0.76589894,-0.78899062
1314362558.92100453,0.41177911,0.76591921,-0.79074287
1314362558.96868157,0.41375014,0.76807743,-0.79185402
1314362559.02147841,0.41034374,0.76655889,-0.78948748
1314362559.07203126,0.41122940,0.76694435,-0.79064798
1314362559.12167621,0.41062158,0.76515436,-0.78959519
1314362559.16947007,0.41364938,0.76562774,-0.78928971
1314362559.22051144,0.41197777,0.76936889,-0.79156315
1314362559.26949453,0.41170487,0.76616341,-0.78967458
1314362559.32095575,0.41324937,0.76715833,-0.78892136
1314362559.36961222,0.40942228,0.76645970,-0.79115158
1314362559.42149115,0.41399160,0.76739448,-0.78794014
1314362559.46859598,0.41469201,0.76674724,-0.78776056
1314362559.52160120,0.41072148,0.76589930,-0.78784907
1314362559.56947231,0.41134459,0.76974857,-0.79066241
1314362559.62048745,0.41291946,0.76498252,-0.78784961
1314362559.66946936,0.41376942,0.76473808,-0.78967899
1314362559.70949507,0.41249278,0.76565146,-0.79029673
1314362559.76846409,0.41157880,0.76690221,-0.78713560
1314362559.82149386,0.41243610,0.76790506,-0.78642213
1314362559.87247968,0.40969539,0.76691675,-0.78657287
1314362559.92051101,0.41138017,0.76640612,-0.78821778
1314362559.96949458,0.41301626,0.76702619,-0.78826231
1314362560.02050781,0.41133031,0.76756173,-0.78890085
1314362560.07330346,0.41143516,0.76563156,-0.78740293
1314362560.12350678,0.41351616,0.76624054,-0.78688449
1314362560.16850901,0.40985200,0.76540810,-0.78870142
1314362560.22406363,0.41239128,0.76842302,-0.78710014
1314362560.26950097,0.40876985,0.76437414,-0.78633863
1314362560.32218552,0.41018817,0.76600516,-0.78532887
1314362560.36958623,0.41290534,0.76778674,-0.78773719
1314362560.42222953,0.40927607,0.76689821,-0.78444809
1314362560.46948767,0.41008326,0.76498181,-0.78492433
1314362560.52054644,0.41139764,0.76637805,-0.78566474
1314362560.56947684,0.41156775,0.76545411,-0.78296191
1314362560.62178755,0.41051909,0.76611859,-0.78437048
1314362560.66859794,0.40997949,0.76586837,-0.78426546
1314362560.72062969,0.41085398,0.76663798,-0.78556377
1314362560.77349472,0.41059846,0.76432061,-0.78327793
1314362560.82062650,0.41172969,0.76840144,-0.78445202
1314362560.86950159,0.41147700,0.76458007,-0.78457224
1314362560.92048979,0.41071877,0.76750582,-0.78316063
1314362560.96946859,0.41128367,0.76752126,-0.78514272
